SCP
0 0 0 0 0 0 0 0 0 -0 -0 -0 -0 0 0 0 0 0 0 0 0 0 0 0 0 0 0 0 0 0 0 0 0 0 0 -0 -0 0 -0 -0 -0 0 0
0 0 0 0 0 0 0 0 0 0 -0 -0 -0 0 0 0 0 0 0 0 0 0 0 0 0 0 0 0 0 0 0 0 0 0 0 0 -0 0 0 -0 -0 -0 0
0 0 0 0 0 0 0 0 0 0 -0 -0 -0 0 0 0 0 0 0 0 0 0 0 0 0 0 0 0 0 0 0 0 0 0 0 0 0 0 0 0 -0 -0 0
0 0 0 0 0 0 0 0 0 0 0 0 0 0 0 0 0 -0 0 -0 -0 0 0 0 0 0 0 0 0 0 0 0 0 0 0 0 0 -0 -0 0 -0 -0 -0
0 0 0 0 0 0 0 0 0 0 0 0 0 0 0 0 0 -0 -0 -0 -0 0 0 0 0 0 0 0 0 0 0 0 0 0 0 0 0 0 -0 -0 -0 -0 0
0 0 0 0 0 0 0 0 0 0 0 0 0 0 0 0 0 0 0 -0 -0 0 0 0 0 0 0 0 0 0 0 0 0 0 0 0 0 0 0 -0 -0 -0 -0
0 0 0 0 0 0 0 0 0 0 0 0 0 0 0 0 0 0 0 -0 -0 0 0 0 0 0 0 0 0 0 0 0 0 0 0 0 0 0 0 0 -0 -0 -0
0 0 0 0 0 0 0 0 0 0 0 0 0 0 0 0 0 0 0 -0 -0 0 0 0 0 0 0 0 0 0 0 0 0 0 0 0 0 0 0 0 0 0 -0
0 0 0 0 0 0 0 0 0 0 0 0 0 0 0 0 0 0 0 -0 -0 -0 0 0 0 0 0 0 0 0 0 0 0 0 0 0 0 0 0 0 -0 -0 -0
0 0 0 0 0 0 0 0 0 0 0 0 0 0 0 0 0 0 0 0 -0 -0 0 0 0 0 0 0 0 0 0 0 0 0 0 0 0 0 0 0 0 -0 -0
0 0 0 0 0 0 0 0 0 0 0 0 0 0 0 0 0 0 0 0 -0 -0 -0 -0 0 0 0 0 0 0 0 0 0 0 0 0 0 0 0 0 0 0 0
0 0 0 0 0 0 0 0 0 0 0 0 0 0 -0 0 0 0 0 0 0 -0 -0 -0 -0 0 0 0 0 0 0 0 0 0 0 0 0 0 0 0 0 0 0
0 0 0 0 0 0 0 0 0 0 0 0 0 0 0 -0 -0 0 0 0 0 0 -0 0 0 0 0 0 0 0 0 0 0 0 0 0 0 0 0 0 0 0 0
0 0 0 0 0 0 0 0 0 0 0 0 0 0 0 -0 -0 0 0 0 0 0 -0 -0 -0 0 0 0 0 0 0 0 0 0 0 0 0 0 0 0 0 0 0
0 0 0 0 0 0 0 0 0 0 0 0 0 0 0 0 -0 0 0 0 0 0 0 -0 -0 -0 -0 -0 -0 0 0 0 0 0 0 0 0 0 0 0 0 0 0
0 0 0 0 0 0 0 0 0 0 0 0 0 0 0 0 0 0 0 0 0 0 0 -0 -0 -0 -0 -0 -0 0 0 0 0 0 0 0 0 0 0 0 0 0 0
0 0 0 0 0 0 0 0 0 0 0 0 0 0 0 0 0 0 0 0 0 0 -0 -0 -0 0 -0 0 0 0 0 0 0 0 0 0 0 0 0 0 0 0 0
0 0 0 0 0 0 0 0 0 0 0 0 0 0 0 0 0 0 0 0 0 -0 -0 0 -0 0 -0 0 0 0 0 0 0 0 0 0 0 0 0 0 0 0 0
0 0 0 0 0 0 0 0 0 0 0 0 0 0 0 0 0 0 0 0 0 -0 -0 0 -0 -0 -0 0 0 0 0 0 0 0 0 0 0 0 0 0 0 0 0
0 0 0 0 0 0 0 0 0 0 0 0 0 0 0 0 0 0 0 0 0 -0 -0 0 0 -0 -0 0 0 0 0 0 0 0 0 0 0 0 0 0 0 0 0
0 0 0 0 0 0 0 0 0 0 0 0 0 0 0 0 0 0 0 0 0 -0 0 -0 0 0 0 0 0 0 0 0 0 0 0 0 0 0 0 0 0 0 0
0 0 0 0 0 0 0 0 0 0 0 0 0 0 0 0 0 0 0 0 0 0 0 0 0 0 0 0 0 0 0 0 0 0 0 0 0 0 0 0 0 0 0
0 0 0 0 0 0 0 0 0 0 0 0 0 0 0 0 0 0 0 0 0 0 0 0 0 0 0 0 0 0 0 0 0 0 0 0 0 0 0 0 0 0 0
0 0 0 0 0 0 0 0 0 0 0 0 0 0 0 0 0 0 0 0 0 0 0 0 0 0 0 0 0 0 0 0 0 0 0 0 0 0 0 0 0 0 0
0 0 0 0 0 0 0 0 0 0 0 0 0 0 0 0 0 0 0 0 0 0 0 0 0 0 0 0 0 0 0 0 0 0 0 0 0 0 0 0 0 0 0
0 0 0 0 0 0 0 0 0 0 0 0 0 0 0 0 0 0 0 0 0 0 0 0 0 0 0 0 0 0 0 0 0 0 0 0 0 0 0 0 0 0 0
Wind_Speed_500mb
24 20 17 16 15 13 14 19 21 26 31 32 32 33 37 41 45 48 52 54 53 53 53 53 54 51 51 51 49 49 39 35 38 39 43 47 50 57 67 69 80 93 101
24 22 21 18 15 13 13 16 20 24 29 31 31 32 36 40 46 49 53 54 54 54 54 52 54 51 55 50 45 45 39 39 42 42 44 48 52 59 66 72 77 85 96
32 27 23 22 19 15 12 15 19 23 27 29 29 31 34 39 45 48 50 53 53 53 54 55 54 50 55 51 41 41 38 36 40 41 47 53 55 60 68 71 76 80 88
39 33 28 25 24 20 16 16 18 23 25 27 28 31 33 36 43 44 47 49 49 50 52 54 53 52 54 52 44 39 35 34 35 39 44 49 47 55 63 68 72 74 76
46 40 34 31 28 25 20 19 20 23 24 26 27 29 30 32 40 40 42 45 45 46 48 50 51 50 49 50 46 40 33 33 34 37 42 46 49 50 53 50 56 67 71
54 48 42 39 35 31 26 24 23 24 25 25 25 26 25 30 35 36 38 40 41 42 46 47 48 48 46 43 44 42 37 35 35 35 39 44 43 38 39 44 47 51 54
59 55 48 45 42 37 32 30 27 26 26 25 24 24 23 26 30 32 33 36 38 39 41 43 44 45 44 42 40 37 38 39 40 38 41 43 41 38 36 33 41 46 41
68 64 57 52 48 44 39 35 33 30 28 26 24 23 21 22 24 28 28 31 34 35 37 40 41 43 42 40 36 36 39 39 40 40 39 38 36 34 33 31 30 34 36
77 70 63 57 55 51 46 41 37 34 31 28 25 22 21 19 20 24 24 26 29 30 33 36 38 39 38 37 36 40 41 45 44 41 39 37 35 34 34 28 29 29 37
85 76 66 61 59 56 50 46 41 37 33 30 26 23 21 18 18 20 19 22 24 26 29 32 36 36 33 33 33 37 41 46 42 40 41 41 41 43 41 42 40 41 37
87 78 70 66 62 59 54 51 47 43 39 34 29 25 22 20 17 20 16 18 20 23 26 28 30 31 29 29 30 34 40 37 35 34 36 38 39 42 43 44 44 43 43
92 79 75 71 68 66 62 57 54 50 44 38 33 28 25 21 18 18 15 14 17 20 22 26 27 28 26 26 27 31 31 30 27 26 29 36 40 41 43 43 44 43 42
95 87 83 78 74 72 70 65 61 56 49 43 38 32 27 24 20 17 16 12 13 17 19 23 25 24 23 22 22 23 23 21 21 23 31 35 39 40 40 39 40 39 37
100 96 92 85 81 78 75 71 67 63 57 50 44 37 32 29 25 20 17 14 11 15 17 19 20 20 20 19 19 18 17 19 21 24 29 33 34 32 33 36 35 34 33
100 100 98 92 86 84 83 79 74 63 54 47 42 36 33 30 25 23 20 17 13 12 16 16 16 18 17 16 15 15 16 18 19 21 25 26 26 26 28 30 31 32 34
93 106 104 98 92 89 88 83 77 66 59 53 46 40 35 33 32 28 26 22 19 16 16 17 15 15 16 13 12 15 16 15 16 19 21 22 23 23 25 27 28 29 30
79 104 107 103 99 97 93 91 86 79 71 63 57 53 48 42 37 35 32 29 28 24 19 18 16 13 12 11 12 13 13 12 14 17 19 20 21 22 24 26 27 28 28
74 89 107 108 104 100 96 95 91 87 84 80 73 64 57 50 46 42 41 40 37 31 26 22 17 13 10 9 9 11 11 9 10 13 15 17 18 20 22 24 25 26 28
71 83 99 110 109 103 99 98 96 91 88 83 76 71 65 58 53 50 51 44 37 35 31 27 24 19 14 11 9 9 8 7 8 8 10 11 13 16 18 19 20 22 24
67 76 88 106 112 110 107 104 101 99 95 92 86 79 71 69 69 63 60 50 47 42 38 33 29 27 22 18 14 12 11 9 7 6 6 7 9 12 13 15 17 20 22
71 80 89 101 113 116 113 110 104 104 102 100 94 85 79 75 69 65 59 53 48 44 43 40 35 31 28 23 19 14 10 6 4 3 3 4 7 10 14 16 19 20 22
66 81 90 99 107 117 119 114 108 107 107 105 99 93 85 81 78 70 62 54 50 46 44 44 40 35 30 27 23 19 15 12 10 6 4 4 6 9 12 15 17 19 22
65 79 87 96 106 115 119 117 114 112 110 109 106 101 96 90 86 77 66 62 57 54 53 52 49 45 41 35 28 25 21 19 17 12 10 10 11 12 13 14 17 19 20
73 74 85 93 102 112 120 123 119 116 113 112 111 107 102 97 90 83 73 70 67 62 59 57 53 49 45 41 36 31 28 25 22 19 17 16 15 16 18 18 19 19 21
84 84 82 93 99 107 114 120 123 123 119 114 113 111 106 104 96 87 80 76 74 72 66 59 56 54 50 45 42 38 33 30 29 26 23 20 20 20 20 22 23 23 23
91 87 85 87 98 103 106 113 123 129 125 120 115 112 111 109 103 95 88 82 82 78 73 66 60 58 55 51 47 44 38 35 33 30 28 26 25 24 24 24 25 26 26
Wind_Direction_500mb
193 186 180 168 155 127 101 88 81 75 71 65 61 57 57 56 55 54 54 53 48 46 45 43 41 35 34 38 46 44 45 47 44 37 29 29 34 43 48 46 50 60 58
207 199 185 176 164 143 122 105 94 85 79 74 69 63 62 63 62 60 57 54 50 46 46 46 45 39 38 42 50 51 43 37 38 39 38 39 45 49 51 51 53 53 57
205 205 198 184 173 163 144 121 109 97 88 83 78 72 68 68 67 64 60 56 51 47 46 46 45 41 40 42 51 57 42 39 39 45 47 53 51 53 50 49 50 51 51
204 204 202 196 182 175 165 141 127 112 102 96 89 81 74 71 71 66 63 60 55 50 47 47 44 41 40 40 46 48 50 39 45 50 48 44 43 45 51 51 49 49 52
203 204 201 201 193 185 176 157 144 127 116 105 96 88 81 77 73 69 66 63 60 55 52 50 47 43 39 39 41 46 42 50 51 46 44 40 40 40 38 46 50 55 55
205 205 201 199 199 192 183 169 157 143 128 118 109 99 92 82 78 72 67 66 63 59 55 52 51 48 42 39 40 41 44 44 42 39 39 42 43 46 43 41 47 49 51
207 205 204 201 198 196 189 178 168 157 142 132 123 112 102 92 86 77 69 67 63 61 60 57 54 52 48 41 42 43 45 46 43 39 38 40 42 42 41 43 40 40 48
208 208 205 202 199 197 194 186 177 167 156 144 137 126 115 102 95 84 73 69 66 62 61 61 57 55 52 48 47 51 51 50 49 44 41 42 41 33 28 29 35 43 47
211 210 208 205 202 199 197 191 184 176 167 157 149 138 130 114 106 91 79 74 72 67 64 65 62 58 54 52 51 53 54 55 51 50 46 42 39 40 39 37 53 41 48
214 213 210 207 205 202 199 195 189 183 177 169 161 151 141 130 114 99 87 81 77 73 70 65 66 61 59 57 56 58 58 57 54 55 57 55 51 51 52 51 48 43 50
216 212 212 210 208 204 201 198 195 190 185 180 173 166 155 145 123 108 98 89 86 82 77 73 70 67 62 58 59 59 57 54 52 50 54 55 53 52 52 51 50 48 49
217 212 215 211 208 205 203 201 198 197 192 188 183 178 170 157 142 122 114 100 95 90 83 78 74 69 64 57 53 57 57 53 47 47 51 54 52 49 48 47 47 46 45
214 216 217 212 210 207 205 204 202 200 198 195 191 185 181 172 159 146 134 125 110 103 94 86 81 75 70 64 57 56 55 54 53 51 52 51 50 47 46 46 46 44 43
216 216 216 212 210 208 207 208 209 206 202 200 198 193 191 187 175 170 156 145 138 123 112 99 92 82 76 70 66 63 58 56 51 49 50 46 45 44 41 43 43 40 41
221 218 216 214 212 210 210 211 211 211 212 208 204 201 201 197 186 186 182 165 164 153 136 119 105 94 86 77 75 71 65 59 53 53 53 48 41 38 38 37 34 29 24
222 218 217 215 213 212 212 211 212 213 214 212 211 210 206 201 201 200 195 183 184 189 167 147 128 111 97 89 82 76 64 59 56 55 53 50 45 40 38 36 32 30 26
228 222 220 218 216 214 213 213 212 210 211 213 214 212 210 209 206 204 204 200 197 200 192 170 150 132 118 110 98 84 73 62 58 57 55 51 47 44 39 38 34 31 31
232 227 224 222 220 219 217 217 215 214 212 212 211 213 214 213 210 209 212 209 205 202 205 183 168 162 156 145 127 108 95 85 71 60 55 49 45 42 41 37 33 30 28
233 230 226 225 224 223 221 220 219 217 217 219 216 216 215 215 216 213 220 215 210 209 207 207 181 183 186 182 169 151 138 123 93 68 58 50 46 42 36 29 24 24 22
237 235 231 227 226 225 224 222 220 219 220 221 220 220 218 217 217 216 220 213 213 209 207 208 206 193 196 200 196 188 177 151 125 105 80 60 46 38 32 25 16 8 6
244 237 233 229 227 228 228 226 224 222 223 223 223 223 224 225 226 224 225 218 214 213 217 205 214 207 202 207 203 203 200 195 175 161 100 43 26 17 8 2 358 356 355
248 239 234 231 229 229 229 229 228 226 226 226 225 224 224 227 230 229 229 223 218 216 217 220 208 216 212 209 211 212 214 215 224 227 255 295 326 341 346 347 346 345 345
245 239 237 234 233 230 230 230 230 230 229 228 227 226 224 227 229 229 225 226 222 217 219 221 219 211 214 215 213 216 218 221 227 236 249 269 292 306 317 325 328 330 332
238 240 238 235 233 231 230 230 231 232 232 231 230 229 227 229 230 229 226 225 225 222 221 224 224 222 216 217 217 216 221 226 233 237 248 261 277 290 300 306 311 316 319
232 236 235 235 234 234 232 232 231 232 233 233 232 231 229 229 230 229 229 227 227 229 226 225 227 226 224 220 221 220 222 230 235 241 246 257 268 275 283 291 297 302 307
231 235 236 236 234 234 235 235 233 232 232 233 233 233 231 230 231 230 229 229 230 230 231 228 226 231 230 226 223 227 226 230 237 243 247 251 260 268 275 280 286 292 296
Wind_Speed_850mb
24 20 17 16 15 13 14 19 21 26 31 32 32 33 37 41 45 48 52 54 53 53 53 53 54 51 51 51 49 49 39 35 38 39 43 47 50 57 67 69 80 93 101
24 22 21 18 15 13 13 16 20 24 29 31 31 32 36 40 46 49 53 54 54 54 54 52 54 51 55 50 45 45 39 39 42 42 44 48 52 59 66 72 77 85 96
32 27 23 22 19 15 12 15 19 23 27 29 29 31 34 39 45 48 50 53 53 53 54 55 54 50 55 51 41 41 38 36 40 41 47 53 55 60 68 71 76 80 88
39 33 28 25 24 20 16 16 18 23 25 27 28 31 33 36 43 44 47 49 49 50 52 54 53 52 54 52 44 39 35 34 35 39 44 49 47 55 63 68 72 74 76
46 40 34 31 28 25 20 19 20 23 24 26 27 29 30 32 40 40 42 45 45 46 48 50 51 50 49 50 46 40 33 33 34 37 42 46 49 50 53 50 56 67 71
54 48 42 39 35 31 26 24 23 24 25 25 25 26 25 30 35 36 38 40 41 42 46 47 48 48 46 43 44 42 37 35 35 35 39 44 43 38 39 44 47 51 54
59 55 48 45 42 37 32 30 27 26 26 25 24 24 23 26 30 32 33 36 38 39 41 43 44 45 44 42 40 37 38 39 40 38 41 43 41 38 36 33 41 46 41
68 64 57 52 48 44 39 35 33 30 28 26 24 23 21 22 24 28 28 31 34 35 37 40 41 43 42 40 36 36 39 39 40 40 39 38 36 34 33 31 30 34 36
77 70 63 57 55 51 46 41 37 34 31 28 25 22 21 19 20 24 24 26 29 30 33 36 38 39 38 37 36 40 41 45 44 41 39 37 35 34 34 28 29 29 37
85 76 66 61 59 56 50 46 41 37 33 30 26 23 21 18 18 20 19 22 24 26 29 32 36 36 33 33 33 37 41 46 42 40 41 41 41 43 41 42 40 41 37
87 78 70 66 62 59 54 51 47 43 39 34 29 25 22 20 17 20 16 18 20 23 26 28 30 31 29 29 30 34 40 37 35 34 36 38 39 42 43 44 44 43 43
92 79 75 71 68 66 62 57 54 50 44 38 33 28 25 21 18 18 15 14 17 20 22 26 27 28 26 26 27 31 31 30 27 26 29 36 40 41 43 43 44 43 42
95 87 83 78 74 72 70 65 61 56 49 43 38 32 27 24 20 17 16 12 13 17 19 23 25 24 23 22 22 23 23 21 21 23 31 35 39 40 40 39 40 39 37
100 96 92 85 81 78 75 71 67 63 57 50 44 37 32 29 25 20 17 14 11 15 17 19 20 20 20 19 19 18 17 19 21 24 29 33 34 32 33 36 35 34 33
100 100 98 92 86 84 83 79 74 63 54 47 42 36 33 30 25 23 20 17 13 12 16 16 16 18 17 16 15 15 16 18 19 21 25 26 26 26 28 30 31 32 34
93 106 104 98 92 89 88 83 77 66 59 53 46 40 35 33 32 28 26 22 19 16 16 17 15 15 16 13 12 15 16 15 16 19 21 22 23 23 25 27 28 29 30
79 104 107 103 99 97 93 91 86 79 71 63 57 53 48 42 37 35 32 29 28 24 19 18 16 13 12 11 12 13 13 12 14 17 19 20 21 22 24 26 27 28 28
74 89 107 108 104 100 96 95 91 87 84 80 73 64 57 50 46 42 41 40 37 31 26 22 17 13 10 9 9 11 11 9 10 13 15 17 18 20 22 24 25 26 28
71 83 99 110 109 103 99 98 96 91 88 83 76 71 65 58 53 50 51 44 37 35 31 27 24 19 14 11 9 9 8 7 8 8 10 11 13 16 18 19 20 22 24
67 76 88 106 112 110 107 104 101 99 95 92 86 79 71 69 69 63 60 50 47 42 38 33 29 27 22 18 14 12 11 9 7 6 6 7 9 12 13 15 17 20 22
71 80 89 101 113 116 113 110 104 104 102 100 94 85 79 75 69 65 59 53 48 44 43 40 35 31 28 23 19 14 10 6 4 3 3 4 7 10 14 16 19 20 22
66 81 90 99 107 117 119 114 108 107 107 105 99 93 85 81 78 70 62 54 50 46 44 44 40 35 30 27 23 19 15 12 10 6 4 4 6 9 12 15 17 19 22
65 79 87 96 106 115 119 117 114 112 110 109 106 101 96 90 86 77 66 62 57 54 53 52 49 45 41 35 28 25 21 19 17 12 10 10 11 12 13 14 17 19 20
73 74 85 93 102 112 120 123 119 116 113 112 111 107 102 97 90 83 73 70 67 62 59 57 53 49 45 41 36 31 28 25 22 19 17 16 15 16 18 18 19 19 21
84 84 82 93 99 107 114 120 123 123 119 114 113 111 106 104 96 87 80 76 74 72 66 59 56 54 50 45 42 38 33 30 29 26 23 20 20 20 20 22 23 23 23
91 87 85 87 98 103 106 113 123 129 125 120 115 112 111 109 103 95 88 82 82 78 73 66 60 58 55 51 47 44 38 35 33 30 28 26 25 24 24 24 25 26 26
Wind_Direction_850mb
193 186 180 168 155 127 101 88 81 75 71 65 61 57 57 56 55 54 54 53 48 46 45 43 41 35 34 38 46 44 45 47 44 37 29 29 34 43 48 46 50 60 58
207 199 185 176 164 143 122 105 94 85 79 74 69 63 62 63 62 60 57 54 50 46 46 46 45 39 38 42 50 51 43 37 38 39 38 39 45 49 51 51 53 53 57
205 205 198 184 173 163 144 121 109 97 88 83 78 72 68 68 67 64 60 56 51 47 46 46 45 41 40 42 51 57 42 39 39 45 47 53 51 53 50 49 50 51 51
204 204 202 196 182 175 165 141 127 112 102 96 89 81 74 71 71 66 63 60 55 50 47 47 44 41 40 40 46 48 50 39 45 50 48 44 43 45 51 51 49 49 52
203 204 201 201 193 185 176 157 144 127 116 105 96 88 81 77 73 69 66 63 60 55 52 50 47 43 39 39 41 46 42 50 51 46 44 40 40 40 38 46 50 55 55
205 205 201 199 199 192 183 169 157 143 128 118 109 99 92 82 78 72 67 66 63 59 55 52 51 48 42 39 40 41 44 44 42 39 39 42 43 46 43 41 47 49 51
207 205 204 201 198 196 189 178 168 157 142 132 123 112 102 92 86 77 69 67 63 61 60 57 54 52 48 41 42 43 45 46 43 39 38 40 42 42 41 43 40 40 48
208 208 205 202 199 197 194 186 177 167 156 144 137 126 115 102 95 84 73 69 66 62 61 61 57 55 52 48 47 51 51 50 49 44 41 42 41 33 28 29 35 43 47
211 210 208 205 202 199 197 191 184 176 167 157 149 138 130 114 106 91 79 74 72 67 64 65 62 58 54 52 51 53 54 55 51 50 46 42 39 40 39 37 53 41 48
214 213 210 207 205 202 199 195 189 183 177 169 161 151 141 130 114 99 87 81 77 73 70 65 66 61 59 57 56 58 58 57 54 55 57 55 51 51 52 51 48 43 50
216 212 212 210 208 204 201 198 195 190 185 180 173 166 155 145 123 108 98 89 86 82 77 73 70 67 62 58 59 59 57 54 52 50 54 55 53 52 52 51 50 48 49
217 212 215 211 208 205 203 201 198 197 192 188 183 178 170 157 142 122 114 100 95 90 83 78 74 69 64 57 53 57 57 53 47 47 51 54 52 49 48 47 47 46 45
214 216 217 212 210 207 205 204 202 200 198 195 191 185 181 172 159 146 134 125 110 103 94 86 81 75 70 64 57 56 55 54 53 51 52 51 50 47 46 46 46 44 43
216 216 216 212 210 208 207 208 209 206 202 200 198 193 191 187 175 170 156 145 138 123 112 99 92 82 76 70 66 63 58 56 51 49 50 46 45 44 41 43 43 40 41
221 218 216 214 212 210 210 211 211 211 212 208 204 201 201 197 186 186 182 165 164 153 136 119 105 94 86 77 75 71 65 59 53 53 53 48 41 38 38 37 34 29 24
222 218 217 215 213 212 212 211 212 213 214 212 211 210 206 201 201 200 195 183 184 189 167 147 128 111 97 89 82 76 64 59 56 55 53 50 45 40 38 36 32 30 26
228 222 220 218 216 214 213 213 212 210 211 213 214 212 210 209 206 204 204 200 197 200 192 170 150 132 118 110 98 84 73 62 58 57 55 51 47 44 39 38 34 31 31
232 227 224 222 220 219 217 217 215 214 212 212 211 213 214 213 210 209 212 209 205 202 205 183 168 162 156 145 127 108 95 85 71 60 55 49 45 42 41 37 33 30 28
233 230 226 225 224 223 221 220 219 217 217 219 216 216 215 215 216 213 220 215 210 209 207 207 181 183 186 182 169 151 138 123 93 68 58 50 46 42 36 29 24 24 22
237 235 231 227 226 225 224 222 220 219 220 221 220 220 218 217 217 216 220 213 213 209 207 208 206 193 196 200 196 188 177 151 125 105 80 60 46 38 32 25 16 8 6
244 237 233 229 227 228 228 226 224 222 223 223 223 223 224 225 226 224 225 218 214 213 217 205 214 207 202 207 203 203 200 195 175 161 100 43 26 17 8 2 358 356 355
248 239 234 231 229 229 229 229 228 226 226 226 225 224 224 227 230 229 229 223 218 216 217 220 208 216 212 209 211 212 214 215 224 227 255 295 326 341 346 347 346 345 345
245 239 237 234 233 230 230 230 230 230 229 228 227 226 224 227 229 229 225 226 222 217 219 221 219 211 214 215 213 216 218 221 227 236 249 269 292 306 317 325 328 330 332
238 240 238 235 233 231 230 230 231 232 232 231 230 229 227 229 230 229 226 225 225 222 221 224 224 222 216 217 217 216 221 226 233 237 248 261 277 290 300 306 311 316 319
232 236 235 235 234 234 232 232 231 232 233 233 232 231 229 229 230 229 229 227 227 229 226 225 227 226 224 220 221 220 222 230 235 241 246 257 268 275 283 291 297 302 307
231 235 236 236 234 234 235 235 233 232 232 233 233 233 231 230 231 230 229 229 230 230 231 228 226 231 230 226 223 227 226 230 237 243 247 251 260 268 275 280 286 292 296